STARLINK-34353, 64278

Orbit data source: Space-Track

STARLINK-34353, 64278 is a payload satellite owned by SpaceX/Seattle (US) in LEO that was launched on Wed, 04 Jun 2025 UTC via an FALCON 9 launch vehicle from the Air Force Western Test Range (AFWTR). Payload-class satellites include a variety of spacecraft equipped with specific instruments for various scientific and technological missions. These include communications satellites like Starlink; space stations such as the ISS; scientific satellites like the Hubble; Earth observation satellites from companies like Planet Labs, Umbra, and HawkEye 360; GPS; miniature CubeSats for education and research; and military/defense satellites.

Loading next visibility...
Identifier
64278, 2025-120Y
Orbit
LEO
Country
Flag of USUS
Related business
Manufacturer
SpaceX/Seattle
Mission
Operational Commercial Communications
Bus & Motor
STARLINK V2MO, Unknown motor
Mass
575 kg wet, ~530 kg dry
Launch date (UTC)
2025-06-04 (1 year ago)
Launch vehicle
FALCON 9
Launch site
Air Force Western Test Range (AFWTR)
Object type
Payload
Rocket body
Debris
Shape & HBR
Box + 2 Pan, 17.7 m
Radar Cross Section
36.964 m², Large (>1 m²)

Expand to show TLE details & history
Last TLE update: 1 day ago

TLE from 1 day ago
0 STARLINK-34353
1 64278U 25120Y   26170.71576058  .00010520  00000-0  36666-3 0  9990
2 64278  53.1611   3.0145 0000737  72.6038 287.5043 15.30211950 59530
Epoch: 2026-06-19T17:10Z
TLE epoch observation values (Epoch: 2026-06-19T17:10:41.714Z)
Latitude
-0.00003°
Longitude
-162.60008°
Altitude
475.927 km
Speed
7.629 km/s
True Right ascension
00h 12m 03s
True Declination
0° 00' 00"
Sunlit
Object was in daylight at epoch
Visualization orbit readout
Latitude
Unknown
Longitude
Unknown
Altitude
Unknown
Speed
Unknown
Apparent Right ascension
Unknown
Apparent Declination
Unknown
Sunlit
N/A
Visualization observer readout
Local Sidereal Time
07:16:13
Azimuth
Unknown
Elevation
Unknown
Doppler factor
Unknown
Orbital elements
Apogee altitude
475.941 km
Perigee altitude
474.931 km
Semi-major axis
6,853.573 km
Eccentricity
0.00007
Inclination
53.1611°
RAAN
3.0145°
Arg. of periapsis
72.6038°
True anomaly
287.49625°
Mean anomaly
287.5043°
Eccentric anomaly
287.50027°
Mean motion
3.82532 °/min
Orbital period
94.11 mins
BSTAR
0.00036666
Loading maneuver chart data...
Computing Atmospheric mass density...
Loading historical data...
Loading historical data...
Loading historical data...
Loading historical data...
Loading historical data...
Loading historical data...
Loading historical data...

Documentation

Showing up to 5 results
|